Find Starlink 36099

NORAD ID: 66797 Int'l Des: 2025-278 Owner: SPXS Country: US Constellation: starlink operational
LEOCIRCULAR

現在のビュー

3D地球を読み込み中...

Starlink 36099について

説明を読み込み中...

次回通過

Passes for default location (London). Set your location on the main map for personalized predictions.

高度履歴

Loading altitude history...

軌道要素

1 66797U 25278G 26146.39879688 .00018676 00000-0 68637-3 0 9997
2 66797 42.9972 35.5153 0000219 311.9111 48.1722 15.27584609 27090
Epoch: May 26, 2026 • Age: 10 hours

現在のステータス

高度 484.4 km
速度 7.63 km/s
衛星直下点 34.64°N, 92.14°W
打ち上げ日 Dec 1, 2025
運用期間 0.4 years
タイプ internet

技術仕様

分類 Payload
質量 575.00 kg
乾燥質量 530.00 kg
総質量 575.00 kg
長さ 0.30 m
直径 4.10 m
スパン 29.00 m
形状 Box + pan
製造者 SPXS
バスタイプ Starlink V2MO
フェーズステータス In Orbit
所有者/国 SPXS/US

Most Searched